Total_Precipitation_Accumulation
0.44 0.38 0.34 0.39 0.36 0.32 0.29 0.31 0.38 0.41 0.42 0.49 0.60 0.70 0.79 0.97 1.18 1.24 1.31 1.46 1.47 1.48 1.60 1.71 1.75 1.68 1.60 1.67 1.84 2.20 2.08 1.72 1.56 1.61 1.48 1.33 1.30 1.38 1.37 1.50 1.58 1.49 1.42
0.36 0.31 0.29 0.30 0.29 0.28 0.25 0.27 0.36 0.46 0.50 0.54 0.67 0.82 1.05 1.16 1.32 1.48 1.46 1.50 1.55 1.59 1.65 1.85 1.97 1.90 1.89 1.98 2.02 2.27 2.42 2.13 1.94 1.98 2.14 1.90 1.68 1.36 1.13 1.22 1.35 1.40 1.43
0.31 0.24 0.25 0.27 0.25 0.25 0.28 0.29 0.41 0.63 0.81 0.89 1.10 1.38 1.63 1.70 1.64 1.64 1.70 1.68 1.71 1.78 1.75 1.85 2.04 2.03 2.00 2.04 2.23 2.54 2.84 2.74 2.47 2.29 2.45 2.20 1.93 1.79 1.29 1.06 1.13 1.27 1.40
0.38 0.29 0.27 0.29 0.26 0.27 0.36 0.52 0.74 1.03 1.27 1.39 1.56 1.78 1.89 1.92 1.86 1.88 1.87 1.85 1.76 1.69 1.69 1.81 2.01 2.16 2.26 2.34 2.40 2.40 2.75 2.99 2.82 2.66 2.35 2.05 1.90 2.02 1.83 1.36 1.11 1.17 1.24
0.41 0.41 0.40 0.45 0.45 0.54 0.73 1.02 1.27 1.48 1.62 1.67 1.74 1.93 2.07 2.23 2.26 2.15 2.01 1.90 1.86 1.79 1.69 1.74 1.81 1.86 1.96 2.10 2.24 2.30 2.53 2.71 2.85 2.81 2.60 2.32 2.16 1.74 1.75 1.80 1.55 1.27 1.05
0.46 0.56 0.67 0.79 0.89 0.98 1.16 1.36 1.48 1.61 1.60 1.60 1.64 1.76 1.94 2.11 2.14 2.17 2.14 2.00 1.88 1.77 1.66 1.61 1.69 1.72 1.73 1.87 1.99 2.09 2.34 2.52 2.63 2.69 2.58 2.47 2.41 2.15 1.90 1.72 1.69 1.54 1.23
0.54 0.74 0.89 1.04 1.15 1.25 1.35 1.37 1.34 1.38 1.41 1.40 1.42 1.48 1.55 1.59 1.65 1.76 1.70 1.57 1.46 1.41 1.39 1.30 1.36 1.50 1.54 1.73 1.80 1.75 1.81 1.99 2.20 2.37 2.40 2.39 2.30 2.26 2.19 2.03 1.85 1.63 1.29
0.81 0.93 1.02 1.13 1.17 1.29 1.34 1.28 1.23 1.22 1.15 1.10 1.13 1.13 1.17 1.22 1.25 1.27 1.22 1.15 1.11 1.08 1.05 1.04 1.05 1.13 1.20 1.42 1.64 1.63 1.63 1.70 1.79 1.88 2.12 2.24 2.18 2.21 2.03 1.92 1.94 1.75 1.47
1.06 1.23 1.22 1.13 1.06 1.11 1.18 1.14 1.08 1.01 0.93 0.87 0.91 0.93 0.99 1.01 0.98 0.95 0.90 0.90 0.83 0.83 0.81 0.85 0.94 1.00 0.99 1.09 1.24 1.42 1.49 1.55 1.62 1.63 1.78 1.89 1.96 1.93 1.79 1.82 1.89 1.78 1.52
1.12 1.39 1.52 1.40 1.13 0.97 0.99 0.94 0.91 0.92 0.89 0.85 0.87 0.86 0.79 0.72 0.71 0.73 0.67 0.67 0.72 0.75 0.75 0.72 0.73 0.81 0.84 0.93 1.05 1.10 1.21 1.29 1.44 1.60 1.74 1.75 1.78 1.81 1.72 1.71 1.84 1.82 1.61
1.31 1.45 1.48 1.35 1.18 0.91 0.84 0.82 0.79 0.82 0.86 0.80 0.83 0.84 0.73 0.60 0.56 0.53 0.49 0.51 0.54 0.59 0.59 0.62 0.68 0.70 0.73 0.75 0.76 0.80 0.87 0.94 1.04 1.11 1.25 1.46 1.64 1.69 1.69 1.74 1.80 1.84 1.70
0.98 0.98 1.08 1.09 1.02 0.90 0.83 0.88 0.91 0.91 0.83 0.76 0.75 0.75 0.67 0.57 0.58 0.52 0.44 0.47 0.52 0.54 0.54 0.58 0.62 0.62 0.68 0.71 0.70 0.69 0.72 0.82 0.91 0.92 0.93 1.03 1.27 1.44 1.56 1.63 1.65 1.72 1.70
0.72 0.64 0.75 0.89 0.84 0.78 0.81 0.89 1.03 1.04 0.95 0.83 0.74 0.74 0.69 0.67 0.69 0.58 0.49 0.48 0.55 0.66 0.67 0.67 0.69 0.65 0.68 0.68 0.68 0.71 0.73 0.75 0.82 0.85 0.86 0.92 1.02 1.19 1.28 1.38 1.49 1.57 1.68
0.56 0.50 0.50 0.54 0.54 0.55 0.58 0.71 0.97 1.17 1.13 1.02 0.89 0.81 0.75 0.74 0.72 0.60 0.54 0.50 0.54 0.59 0.59 0.67 0.74 0.82 0.87 0.85 0.81 0.79 0.78 0.73 0.75 0.82 0.89 0.91 0.92 1.05 1.26 1.38 1.45 1.49 1.60
0.37 0.32 0.31 0.33 0.34 0.39 0.46 0.56 0.85 1.06 1.07 1.06 0.93 0.80 0.70 0.65 0.62 0.61 0.62 0.56 0.51 0.50 0.49 0.57 0.66 0.76 0.85 0.90 0.90 0.76 0.65 0.66 0.71 0.71 0.72 0.80 0.87 0.91 1.06 1.22 1.46 1.48 1.60
0.30 0.30 0.28 0.25 0.22 0.22 0.28 0.37 0.56 0.74 0.83 0.88 0.84 0.70 0.66 0.58 0.51 0.56 0.64 0.62 0.50 0.45 0.46 0.49 0.46 0.49 0.54 0.72 0.72 0.60 0.50 0.54 0.63 0.70 0.72 0.72 0.74 0.77 0.81 0.84 1.09 1.29 1.42
0.33 0.35 0.33 0.30 0.27 0.24 0.25 0.27 0.33 0.43 0.51 0.56 0.58 0.47 0.46 0.55 0.57 0.59 0.58 0.51 0.41 0.42 0.43 0.38 0.32 0.34 0.39 0.45 0.44 0.49 0.50 0.52 0.56 0.64 0.73 0.78 0.76 0.82 0.90 0.87 0.90 1.00 1.07
0.35 0.33 0.30 0.27 0.25 0.22 0.22 0.23 0.24 0.27 0.30 0.29 0.27 0.23 0.30 0.42 0.44 0.41 0.39 0.34 0.34 0.39 0.45 0.38 0.35 0.39 0.36 0.38 0.42 0.46 0.47 0.60 0.66 0.65 0.65 0.77 0.83 0.90 1.06 1.04 1.09 1.02 0.93
0.16 0.14 0.12 0.11 0.11 0.11 0.12 0.11 0.09 0.10 0.11 0.11 0.11 0.12 0.13 0.15 0.16 0.14 0.17 0.23 0.29 0.34 0.31 0.33 0.48 0.47 0.44 0.52 0.48 0.41 0.47 0.60 0.68 0.63 0.65 0.77 0.87 1.04 1.15 1.17 1.18 1.07 0.98
0.04 0.06 0.08 0.09 0.08 0.08 0.09 0.07 0.07 0.08 0.08 0.09 0.10 0.11 0.10 0.11 0.10 0.11 0.12 0.15 0.19 0.25 0.26 0.29 0.42 0.47 0.51 0.53 0.41 0.38 0.48 0.61 0.69 0.69 0.68 0.90 0.91 1.00 1.05 1.10 1.22 1.23 1.10
0.04 0.06 0.07 0.08 0.08 0.07 0.08 0.07 0.07 0.08 0.12 0.12 0.11 0.10 0.10 0.12 0.15 0.18 0.16 0.17 0.16 0.18 0.20 0.24 0.29 0.30 0.30 0.31 0.32 0.35 0.40 0.50 0.61 0.66 0.69 0.67 0.80 0.81 0.91 1.02 1.09 1.31 1.19
0.05 0.07 0.08 0.07 0.08 0.09 0.09 0.09 0.08 0.10 0.13 0.13 0.12 0.11 0.13 0.14 0.16 0.22 0.23 0.22 0.21 0.19 0.19 0.24 0.30 0.30 0.26 0.22 0.24 0.27 0.32 0.41 0.46 0.51 0.61 0.60 0.69 0.73 0.79 0.81 0.98 1.16 1.12
0.05 0.07 0.09 0.10 0.10 0.10 0.11 0.11 0.11 0.13 0.14 0.13 0.13 0.14 0.15 0.17 0.17 0.19 0.20 0.23 0.23 0.24 0.24 0.26 0.29 0.29 0.30 0.28 0.30 0.32 0.35 0.38 0.36 0.36 0.51 0.57 0.65 0.63 0.62 0.74 0.93 0.98 1.02
0.05 0.05 0.06 0.09 0.13 0.15 0.15 0.17 0.18 0.19 0.18 0.17 0.16 0.16 0.17 0.20 0.22 0.23 0.24 0.26 0.29 0.29 0.29 0.29 0.31 0.34 0.34 0.30 0.29 0.33 0.36 0.35 0.33 0.35 0.49 0.61 0.67 0.64 0.63 0.70 0.82 0.88 1.01
0.09 0.06 0.06 0.07 0.10 0.14 0.16 0.19 0.20 0.21 0.22 0.22 0.22 0.21 0.21 0.22 0.25 0.27 0.29 0.29 0.30 0.32 0.31 0.31 0.33 0.32 0.30 0.29 0.32 0.35 0.37 0.37 0.38 0.46 0.61 0.73 0.75 0.75 0.72 0.76 0.85 0.83 0.81
0.07 0.07 0.08 0.07 0.08 0.09 0.10 0.13 0.15 0.17 0.19 0.24 0.24 0.22 0.25 0.29 0.29 0.28 0.25 0.27 0.29 0.31 0.30 0.29 0.32 0.32 0.30 0.30 0.33 0.38 0.41 0.40 0.49 0.65 0.81 0.91 0.99 0.99 0.93 0.89 0.88 0.81 0.79